Hourly Data Report for March 27, 2019

MAYO A
YUKON TERRITORY
Current Station Operator: NAVCAN

63°36'59.000" N
135°52'06.000" W
503.80 m
2100701
71965
YMA

Download Data

Hourly Data (March 2019)
Hourly Data Report for March 27, 2019
TIME
LST
Temp Definition
°C
Dew Point Definition
°C
Rel Hum Definition
%
Precip. Amount Definition
mm

Wind Dir Definition
10's deg

Wind Spd Definition
km/h
Visibility Definition
km
Stn Press Definition
kPa
Hmdx Definition


Wind Chill Definition


Weather Definition


00:00 -3.0 -4.9 87   36 1 32.2 96.08   -3 LegendNANA
01:00 -3.8 -5.5 88   36 1 32.2 96.12   -4 Clear
02:00 -4.1 -5.5 90   33 3 32.2 96.12   -5 LegendNANA
03:00 -4.1 -6.1 86   36 2 32.2 96.17   -5 LegendNANA
04:00 -5.0 -6.7 88   36 2 32.2 96.18   -6 Clear
05:00 -5.0 -7.1 85   7 3 32.2 96.19   -6 LegendNANA
06:00 -5.7 -7.0 90   36 2 32.2 96.23   -7 LegendNANA
07:00 -5.6 -6.8 91   36 1 32.2 96.26   -6 Mostly Cloudy
08:00 -3.5 -5.6 86   0 1 32.2 96.29   -4 LegendNANA
09:00 -1.9 -6.1 73   36 3 32.2 96.30   -3 LegendNANA
10:00 -0.1 -5.4 68   36 1 32.2 96.28   0 Cloudy
11:00 1.3 -5.0 63   10 4 32.2 96.29     LegendNANA
12:00 4.7 -4.9 50   12 5 32.2 96.26     LegendNANA
13:00 6.2 -5.0 45   20 7 32.2 96.24     Cloudy
14:00 7.8 -5.1 40   19 9 32.2 96.20     LegendNANA
15:00 8.3 -4.3 40   19 9 32.2 96.17     LegendNANA
16:00 8.7 -4.8 38   36 1 32.2 96.16     Cloudy
17:00 7.7 -2.5 49   30 17 32.2 96.20     LegendNANA
18:00 7.0 -0.7 58   36 2 32.2 96.21     LegendNANA
19:00 6.2 -1.4 58   32 4 32.2 96.23     Mostly Cloudy
20:00 4.5 -1.1 67   29 4 32.2 96.25     LegendNANA
21:00 3.2 -1.5 72   34 4 32.2 96.27     LegendNANA
22:00 2.2 -2.0 74   32 5 32.2 96.27     Cloudy
23:00 1.2 -2.1 78   28 4 32.2 96.27     LegendNANA

Notes on Data Quality.

Legend

  • E = Estimated
  • M = Missing
  • NA = Not Available*
  • [empty] = Indicates an unobserved value
Date modified: